Regional Weather Roundup
Issued by NWS

Home | Current Version | Previous Version | Text Only | Print | Product List | Glossary On
Versions: 1 2 3 4 5 6 7 8 9 10 11 12 13 14 15 16 17 18 19 20 21 22 23 24 25 26 27 28 29 30 31 32 33 34 35 36 37 38 39 40 41 42 43 44 45 46 47 48 49 50
000
ASUS43 KDTX 270401
RWRMI
MICHIGAN HOURLY REGIONAL WEATHER ROUNDUP
NATIONAL WEATHER SERVICE DETROIT/PONTIAC MI
1200 AM EDT FRI MAY 27 2016

NOTE: "FAIR" INDICATES FEW OR NO CLOUDS BELOW 12,000 FEET WITH NO
SIGNIFICANT WEATHER AND/OR OBSTRUCTION TO VISIBILITY.

MIZ047>049-052>055-059>063-066>070-074>076-081>083-270500-
SOUTHEAST LOWER MICHIGAN

CITY           SKY/WX    TMP DP  RH WIND       PRES   REMARKS
ADRIAN         MOCLDY    72  63  73 W5        29.96S
ALMA           CLEAR     66  64  93 W9        29.92S
ANN ARBOR      CLOUDY    67  65  93 SW3       29.94S
BAD AXE        CLOUDY    71  64  76 SW7       29.94R
CARO           PTCLDY    69  65  88 CALM      29.92S
DETROIT CITY   CLEAR     76  64  66 SW7       29.94R
DETROIT        MOCLDY    75  65  70 S8        29.94S
FLINT          PTCLDY    75  63  66 SW5       29.93R
GROSSE ILE     CLEAR     72  66  83 S6        29.93F
HILLSDALE      PTCLDY    69  58  66 S3        29.96F
HOWELL         PTCLDY    72  61  68 SW3       29.94S

CITY           SKY/WX    TMP DP  RH WIND       PRES   REMARKS
JACKSON        MOCLDY    69  62  78 SW5       29.94F
LAMBERTVILLE   PTCLDY    75  65  71 S3        29.95S
LANSING        CLEAR     72  61  68 W6        29.94S
LAPEER         CLOUDY    72  66  81 CALM      29.94S
MASON          PTCLDY    69  58  68 SW5       29.94S
MONROE         PTCLDY    73  66  80 SW9       29.93F
MT. CLEMENS    PTCLDY    68  65  90 S6        29.93R
PONTIAC        PTCLDY    76  62  62 S5        29.93S
PORT HOPE        N/A     70  67  90 SW5       29.90S
PORT HURON     CLEAR     68  64  88 S5        29.94R
TRI CITIES     MOCLDY    74  64  71 SW3       29.91R
MIDLAND        FAIR      68  65  92 CALM      29.90S
TROY           CLEAR     78  64  61 SW6       29.95S
SAGINAW HB     CLEAR     68  64  88 SE3       29.90S
$$
MIZ043>046-050>051-056>058-064>065-071>073-077>080-270500-
SOUTHWEST LOWER MICHIGAN

CITY           SKY/WX    TMP DP  RH WIND       PRES   REMARKS
BATTLE CREEK   CLOUDY    70  60  70 S3        29.94F
BENTON HARBOR  PTCLDY    66  63  90 CALM      29.91F
BIG RAPIDS     CLOUDY    63  61  94 CALM      29.91F
COLDWATER      CLEAR     69  59  69 CALM      29.94F
FREMONT        FAIR      64  64 100 CALM      29.90F
HOLLAND        CLOUDY    68  62  81 CALM      29.91F
GRAND RAPIDS   CLOUDY    71  62  73 CALM      29.91F
IONIA          FAIR      69  61  74 S5        29.91F
KALAMAZOO      CLOUDY    69  61  75 CALM      29.92F
LUDINGTON      PTCLDY    64  61  90 CALM      29.90S
MARSHALL       PTCLDY    69  60  73 CALM      29.93F
MOUNT PLEASANT CLEAR     66  63  89 CALM      29.90F
MUSKEGON       MOCLDY    68  60  75 SW3       29.90F
SOUTH HAVEN    CLOUDY    65  63  94 CALM      29.91F
$$
MIZ016>042-270500-
NORTHERN LOWER MICHIGAN

CITY           SKY/WX    TMP DP  RH WIND       PRES   REMARKS
ALPENA         CLEAR     63  61  93 CALM      29.89S
BEAVER ISLAND  FOG       54  54 100 W3        29.90S VSB 1/2
BELLAIRE       CLEAR     62  60  93 CALM      29.89F
CADILLAC       CLOUDY    62  60  93 CALM      29.92S
CHARLEVOIX     CLEAR     55  54  98 W5        29.93S FOG
FRANKFORT      CLOUDY    58  57  96 CALM      29.90S FOG
GAYLORD        CLEAR     64  60  87 W5        29.91S
GRAYLING       CLEAR     64  60  88 CALM      29.93R
HARBOR SPRINGS CLOUDY    55  54  98 SW3       29.91R FOG
HOUGHTON LAKE  PTCLDY    64  61  90 W3        29.92R
MANISTEE       CLEAR     63  55  77 CALM      29.90F
OSCODA         MOCLDY    67  64  87 SW5       29.89R
PELLSTON       CLOUDY    59  57  93 W7        29.90R
ROGERS CITY    PTCLDY    63  61  92 SW3       29.89S
TRAVERSE CITY  CLEAR     69  61  75 SW3       29.88S
$$
MIZ007>008-015-270500-
EASTERN UPPER MICHIGAN

CITY           SKY/WX    TMP DP  RH WIND       PRES   REMARKS
KINROSS          N/A     57  57 100 W6        29.88S
MACKINAC ISLAN FOG       53  53 100 W6        29.89S VSB 1/4
NEWBERRY       PTCLDY    57  56  97 W3        29.89S
S. S. MARIE    CLOUDY    58  56  93 W8        29.87R FOG
MUNISING         N/A     58  57  97 S6        29.86F
$$
MIZ004>006-011>014-085-270500-
CENTRAL UPPER MICHIGAN

CITY           SKY/WX    TMP DP  RH WIND       PRES   REMARKS
MANISTIQUE     FOG       53  52  97 SE6       29.88S VSB 1/2
ESCANABA       MOCLDY    55  54  94 CALM      29.88R VSB 3/4
MENOMINEE      CLEAR     59  57  94 CALM      29.88F
SAWYER-GWINN   PTCLDY    59  57  94 S3        29.87F
$$
MIZ001>003-009>011-084-270500-
WESTERN UPPER MICHIGAN

CITY           SKY/WX    TMP DP  RH WIND       PRES   REMARKS
IRON MOUNTAIN  PTCLDY    65  61  87 S5        29.86F
HOUGHTON       FOG       52  50  93 E3        29.82F VSB 1/4
COPPER HARBOR    N/A     50  50 100 CALM      29.83F
IRONWOOD       CLOUDY    57  57 100 CALM      29.81S
$$

ABBREVIATIONS USED IN REMARKS
   TC - TEMPERATURE IN CELSIUS
  WCI - WIND CHILL INDEX
   HX - HEAT INDEX
  VSB - VISIBILITY




USA.gov is the U.S. government's official web portal to all federal, state and local government web resources and services.